This is the latest recevied weather packets stored in our database for station/object K0APR. If no packets are shown the sender has not sent any weather packets the latest 10 day(s).
| Time | Temp. | Humidity | Pressure | Rain* | Wind** | Luminosity | Snow |
|---|---|---|---|---|---|---|---|
| 1788636132 | 30° C | 62% | 1014.4 hPa | 0 mm | - | 598 W/m² | - |
| 1788635831 | 30° C | 63% | 1014.4 hPa | 0 mm | - | 534 W/m² | - |
| 1788635529 | 30° C | 63% | 1014.4 hPa | 0 mm | - | 540 W/m² | - |
| 1788635228 | 29.44° C | 64% | 1014.4 hPa | 0 mm | - | 376 W/m² | - |
| 1788634927 | 29.44° C | 64% | 1014.4 hPa | 0 mm | - | 594 W/m² | - |
| 1788634626 | 28.89° C | 65% | 1014.4 hPa | 0 mm | - | 627 W/m² | - |
| 1788634321 | 28.89° C | 66% | 1014.4 hPa | 0 mm | - | 492 W/m² | - |
| 1788634021 | 29.44° C | 64% | 1014.4 hPa | 0 mm | - | 436 W/m² | - |
| 1788633720 | 28.89° C | 64% | 1014.4 hPa | 0 mm | - | 317 W/m² | - |
| 1788633414 | 28.89° C | 64% | 1014.4 hPa | 0 mm | - | 541 W/m² | - |
| 1788633109 | 28.89° C | 63% | 1014.4 hPa | 0 mm | - | 302 W/m² | - |
| 1788632808 | 28.33° C | 65% | 1014.7 hPa | 0 mm | - | 587 W/m² | - |
| 1788632508 | 28.33° C | 65% | 1014.7 hPa | 0 mm | - | 605 W/m² | - |
| 1788632204 | 27.78° C | 66% | 1014.7 hPa | 0 mm | - | 602 W/m² | - |
| 1788631903 | 27.78° C | 67% | 1014.7 hPa | 0 mm | - | 567 W/m² | - |
| 1788631597 | 27.22° C | 68% | 1014.7 hPa | 0 mm | - | 456 W/m² | - |
| 1788631293 | 27.22° C | 68% | 1014.7 hPa | 0 mm | - | 406 W/m² | - |
| 1788630992 | 26.67° C | 71% | 1014.7 hPa | 0 mm | - | 293 W/m² | - |
| 1788630688 | 27.22° C | 70% | 1015.1 hPa | 0 mm | - | 238 W/m² | - |
| 1788630383 | 27.22° C | 71% | 1015.1 hPa | 0 mm | - | 287 W/m² | - |
| 1788630078 | 27.22° C | 70% | 1014.7 hPa | 0 mm | - | 305 W/m² | - |
| 1788629775 | 27.22° C | 71% | 1015.1 hPa | 0 mm | - | 331 W/m² | - |
| 1788629470 | 26.67° C | 69% | 1015.5 hPa | 0 mm | - | 335 W/m² | - |
| 1788629169 | 26.67° C | 69% | 1015.1 hPa | 0 mm | - | 296 W/m² | - |
| 1788628864 | 26.67° C | 70% | 1015.5 hPa | 0 mm | - | 287 W/m² | - |
* Rain latest hour (hover to see other rain measurements)
** Current wind speed in m/s (hover to see current wind gust speed)